Location: Ipswich
(52.0579°N, 1.1528°E)
Time: 08:48:13
(UTC+01:00)

ISS - Pass Details

Date: 08 May 2026
Orbit: 414 x 424 km, 51.6° (Epoch: 7 May)

Event Time Altitude Azimuth Distance (km) Brightness Sun altitude
Rises 23:02:54 0° 242° (WSW) 2,347 0.0 -16.7°
Reaches altitude 10° 23:05:01 10° 237° (WSW) 1,487 -1.0 -16.9°
Enters shadow 23:08:14 52° 162° (SSE) 527 -3.7 -17.1°
